Home > Weather > Kehl > Past weeks

Flag for Germany Weather for the Past 2 Weeks in Kehl, Baden-Württemberg, Germany

Now
55 °F

Sunny.


Feels Like: 55 °F
Forecast: 41 / 55 °F
Wind: 2 mph from North

Location: Strasbourg Airport

Current Time: Apr 30, 2016 at 11:48:39 AM

Latest Report: Apr 30, 2016 at 11:00 AM


Visibility: 10 mi

Pressure: 30.01 "Hg

Humidity: 59%

Dew Point: 41 °F

Location of KehlLocation

Historic Weather in Kehl — Graph

°F

Kehl Temperature Yesterday

Maximum temperature yesterday: 61 °F (at 5:30 PM)
Minimum temperature yesterday: 32 °F (at 6:30 AM)
Average temperature yesterday: 48 °F

High & Low Weather Summary for the Past Weeks

 TemperatureHumidityPressure
High70 °F (Apr 21, 3:30 PM)100% (Apr 19, 3:00 AM)30.36 "Hg (Apr 19, 3:00 AM)
Low32 °F (Apr 29, 6:30 AM)33% (Apr 21, 3:30 PM)29.62 "Hg (Apr 16, 5:30 AM)
Average48 °F72%29.98 "Hg
* Reported Apr 15 10:00 AM — Apr 30 10:00 AM, Kehl, Weather by CustomWeather, © 2016

Note: Actual official high and low records may vary slightly from our data, if they occured in-between our weather recording intervals... More about our weather records

Advertising

Kehl Weather History for the Previous 24 Hours

Scroll right to see more
 ConditionsComfort  
Time TempWeatherWind HumidityBarometerVisibility
10:00 AM
Sat, Apr 30
46 °FSunny.1 mph71%30.01 "Hg10 mi
9:30 AM46 °FSunny.2 mph76%30.01 "Hg10 mi
9:00 AM43 °FSunny.2 mph81%30.01 "Hg10 mi
8:30 AM41 °FSunny.3 mph87%30.04 "Hg10 mi
8:00 AM41 °FSunny.2 mph87%30.04 "Hg10 mi
7:30 AM39 °FSunny.3 mph87%30.04 "Hg10 mi
7:00 AM37 °FClear.2 mph93%30.04 "Hg10 mi
6:30 AM36 °FClear.2 mph93%30.01 "Hg10 mi
6:00 AM36 °FClear.No wind93%30.01 "Hg10 mi
5:00 AM36 °FClear.1 mph93%30.04 "Hg10 mi
4:30 AM37 °FClear.2 mph87%30.04 "Hg10 mi
4:00 AM37 °FClear.No wind93%30.01 "Hg10 mi
3:30 AM39 °FClear.2 mph87%30.01 "Hg10 mi
3:00 AM39 °FClear.No wind81%30.01 "Hg10 mi
2:30 AM41 °FClear.3 mph81%30.04 "Hg10 mi
1:30 AM43 °FClear.3 mph76%30.04 "Hg10 mi
1:00 AM43 °FClear.5 mph76%30.04 "Hg10 mi
12:30 AM45 °FClear.2 mph71%30.04 "Hg10 mi
12:00 AM45 °FClear.2 mph71%30.04 "Hg10 mi
11:30 PM
Fri, Apr 29
45 °FClear.No wind71%30.04 "Hg10 mi
11:00 PM45 °FClear.2 mph71%30.04 "Hg10 mi
10:30 PM48 °FClear.3 mph58%30.04 "Hg10 mi
10:00 PM50 °FClear.6 mph58%30.04 "Hg10 mi
9:30 PM50 °FSunny.5 mph54%30.04 "Hg10 mi
9:00 PM54 °FSunny.7 mph47%30.01 "Hg10 mi
8:30 PM54 °FSunny.8 mph47%30.01 "Hg10 mi
8:00 PM55 °FSunny.9 mph44%30.01 "Hg10 mi
7:30 PM59 °FPassing clouds.3 mph39%30.01 "HgN/A
7:00 PM59 °FSunny.No wind36%30.01 "Hg10 mi
6:30 PM61 °FSunny.2 mph36%30.01 "Hg10 mi
6:00 PM61 °FSunny.1 mph36%30.01 "Hg10 mi
5:30 PM61 °FPassing clouds.3 mph39%30.01 "HgN/A
5:00 PM59 °FPartly sunny.5 mph39%30.01 "HgN/A
4:30 PM59 °FSunny.3 mph39%30.04 "Hg10 mi
4:00 PM59 °FPassing clouds.5 mph39%30.04 "HgN/A
3:30 PM59 °FPassing clouds.7 mph36%30.04 "HgN/A
3:00 PM59 °FSunny.3 mph36%30.04 "Hg10 mi
2:30 PM59 °FPartly sunny.8 mph36%30.04 "HgN/A
2:00 PM57 °FSunny.2 mph36%30.04 "Hg10 mi
1:30 PM55 °FPassing clouds.5 mph41%30.07 "HgN/A
1:00 PM57 °FSunny.3 mph39%30.07 "Hg10 mi
12:30 PM54 °FOvercast.6 mph44%30.07 "HgN/A
12:00 PM54 °FPartly sunny.3 mph44%30.07 "HgN/A
11:30 AM55 °FPartly sunny.3 mph51%30.07 "HgN/A
11:00 AM54 °FPassing clouds.5 mph54%30.07 "HgN/A
Weather by CustomWeather, © 2016

See weather overviewHow to use our weather pages